User: anonymous   Login
Location: Unspecified
(0.0000°N, 0.0000°E)
Time: 19:45:40
(UTC+00:00)
Language:

CUBEBUG 2 - Orbit

View from above orbital plane
View from above orbital plane
View from above satellite
View from above satellite

Ground track
Ground track

The orbit data is extracted from the following two-line orbital elements,

1 39440U 13066AA  20196.40256960  .00000116  00000-0  23340-4 0  9990
2 39440  97.6319 177.4172 0078531 252.4469 106.8150 14.76026374357750
Epoch (UTC): 14 July 2020 09:39:42
Eccentricity: 0.0078531
inclination: 97.6319°
perigee height: 587 km
apogee height: 697 km
right ascension of ascending node: 177.4172°
argument of perigee: 252.4469°
revolutions per day: 14.76026374
mean anomaly at epoch: 106.8150°
orbit number at epoch: 35775

The dashed part of the orbit path shows where the satellite is in the earth's shadow,  

DLR